SCP
0 0 0 0 0 0 0 0 0 0 0 0 0 0 0 0 0 0 0 0 0 0 0 0 0 0 0 0 0 0 0 0 0 0 0 0 0 0 0 0 0 0 0
0 0 0 0 0 0 0 0 0 0 0 0 0 0 0 0 0 0 0 0 0 0 0 0 0 0 0 0 0 0 0 0 0 0 0 0 0 0 0 0 0 0 0
0 0 0 0 0 0 0 0 0 0 0 0 0 0 0 0 0 0 0 0 0 0 0 0 0 0 0 0 0 0 0 0 0 0 0 0 0 0 0 0 0 0 0
0 0 0 0 0 0 0 0 0 0 0 0 0 0 0 0 0 0 0 0 0 0 0 0 0 0 0 0 0 0 0 0 0 0 0 0 0 0 0 0 0 0 0
0 0 0 0 0 0 0 0 0 0 0 0 0 0 0 0 0 0 0 0 0 0 0 0 0 0 0 0 0 0 0 0 0 0 0 0 0 0 0 0 0 0 0
0 0 0 0 0 0 0 0 0 0 0 0 0 0 0 0 0 0 0 0 0 0 0 0 0 0 0 0 0 0 0 0 0 0 0 0 0 0 0 0 0 0 0
0 0 0 0 0 0 0 0 0 0 0 0 0 0 0 0 0 0 0 0 0 0 0 0 0 0 0 0 0 0 0 0 0 0 0 0 0 0 0 0 0 0 0
0 0 0 0 0 0 0 0 0 0 0 0 0 0 0 0 0 0 0 0 0 0 0 0 0 0 0 0 0 0 0 0 0 0 0 0 0 0 0 0 0 0 0
0 0 0 0 0 0 0 0 0 0 0 0 0 0 0 0 0 0 0 0 0 0 0 0 0 0 0 0 0 0 0 0 0 0 0 0 0 0 0 0 0 0 0
0 0 0 0 0 0 0 0 0 0 0 0 0 0 0 0 0 0 0 0 0 0 0 0 0 0 0 0 0 0 0 0 0 0 0 0 0 0 0 0 0 0 0
0 0 0 0 0 0 0 0 0 0 0 0 0 0 0 0 0 0 0 0 0 0 0 0 0 0 0 0 0 0 0 0 0 0 0 0 0 0 0 0 0 0 0
0 0 0 0 0 0 0 0 0 0 0 0 0 0 0 0 0 0 0 0 0 0 0 0 0 0 0 0 0 0 0 0 0 0 0 0 0 0 0 0 0 0 0
0 0 0 0 0 0 0 0 0 0 0 0 0 0 0 0 0 0 0 0 0 0 0 0 0 0 0 0 0 0 0 0 0 0 0 0 0 0 0 0 0 0 0
0 0 0 0 0 0 0 0 0 0 0 0 0 0 0 0 0 0 0 0 0 0 0 0 0 0 0 0 0 0 0 0 0 0 0 0 0 0 0 0 0 0 0
0 0 0 0 0 0 0 0 0 0 0 0 0 0 0 0 0 0 0 0 0 0 0 0 0 0 0 0 0 0 0 0 0 0 0 0 0 0 0 0 0 0 0
0 0 0 0 0 0 0 0 0 0 0 0 0 0 0 0 0 0 0 0 0 0 0 0 0 0 0 0 0 0 0 0 0 0 0 0 0 0 0 0 0 0 0
0 0 0 0 0 0 0 0 0 0 0 0 0 0 0 0 0 0 0 0 0 0 0 0 0 0 0 0 0 0 0 0 0 0 0 0 0 0 0 0 0 0 0
0 0 0 0 0 0 0 0 0 0 0 0 0 0 0 0 0 0 0 0 0 0 0 0 0 0 0 0 0 0 0 0 0 0 0 0 0 0 0 0 0 0 0
0 0 0 0 0 0 0 0 0 0 0 0 0 0 0 0 0 0 0 0 0 0 0 0 0 0 0 0 0 0 0 0 0 0 0 0 0 0 0 0 0 0 0
0 0 0 0 0 0 0 0 0 0 0 0 0 0 0 0 0 0 0 0 0 0 0 0 0 0 0 0 0 0 0 0 0 0 0 0 0 0 0 0 0 0 0
0 0 0 0 0 0 0 0 0 0 0 0 0 0 0 0 0 0 0 0 0 0 0 0 0 0 0 0 0 0 0 0 0 0 0 0 0 0 0 0 0 0 0
0 0 0 0 0 0 0 0 0 0 0 0 0 0 0 0 0 0 0 0 0 0 0 0 0 0 0 0 0 0 0 0 0 0 0 0 0 0 0 0 0 0 0
0 0 0 0 0 0 0 0 0 0 0 0 0 0 0 0 0 0 0 0 0 0 0 0 0 0 0 0 0 0 0 0 0 0 0 0 0 0 0 0 0 0 0
0 0 0 0 0 0 0 0 0 0 0 0 0 0 0 0 0 0 0 0 0 0 0 0 0 0 0 0 0 0 0 0 0 0 0 0 0 0 0 0 0 0 0
0 0 0 0 0 0 0 0 0 0 0 0 0 0 0 0 0 0 0 0 0 0 0 0 0 0 0 0 0 0 0 0 0 0 0 0 0 0 0 0 0 0 0
0 0 0 0 0 0 0 0 0 0 0 0 0 0 0 0 0 0 0 0 0 0 0 0 0 0 0 0 0 0 0 0 0 0 0 0 0 0 0 0 0 0 0
Wind_Speed
1 1 5 9 11 12 12 12 13 14 14 15 15 15 15 14 14 14 14 14 15 15 15 16 16 16 16 16 16 16 15 15 15 15 15 15 15 15 15 15 14 11 15
2 1 6 9 10 11 12 12 13 13 13 14 14 14 14 14 14 14 14 14 14 15 15 15 15 16 16 16 15 15 15 15 14 14 14 14 15 15 14 15 14 10 15
3 2 5 8 9 10 11 12 12 13 14 14 13 14 14 13 13 14 14 13 14 14 15 14 15 15 15 15 15 15 14 14 14 14 13 9 10 13 14 14 15 15 15
4 3 4 8 9 10 11 11 12 12 13 13 13 13 13 13 13 13 13 13 13 14 14 14 14 15 15 14 14 14 13 14 14 13 7 7 8 12 13 14 14 14 14
4 3 4 9 9 9 10 10 11 11 12 12 12 12 12 12 12 12 12 12 13 13 13 14 14 14 14 14 13 12 13 13 13 10 6 6 6 11 13 13 13 13 13
3 2 4 8 8 8 9 10 10 10 10 10 11 11 11 11 11 12 11 12 12 12 13 13 13 13 13 12 11 11 11 11 9 7 6 5 5 10 12 12 12 12 12
3 2 3 7 8 8 8 8 9 9 9 9 9 9 10 10 10 11 10 11 11 11 11 11 12 12 11 11 10 10 10 10 6 6 5 5 5 9 11 11 11 11 11
3 2 2 6 7 7 7 7 7 8 8 8 8 8 9 9 9 9 9 9 10 10 10 10 10 10 9 9 9 8 8 8 6 6 5 5 6 8 10 10 10 10 10
3 3 2 2 3 5 6 6 6 6 6 7 7 7 8 8 8 8 8 8 8 8 8 8 8 8 7 7 7 7 7 7 5 4 5 4 6 8 9 10 10 10 10
3 2 2 2 2 2 2 4 5 5 5 5 6 6 6 6 6 7 6 6 7 7 7 7 6 6 6 5 5 5 6 6 4 4 3 4 7 9 9 9 9 9 9
2 1 1 1 1 1 1 1 2 3 3 3 3 4 4 3 3 3 4 4 5 5 5 5 4 4 4 3 3 4 4 2 3 3 2 4 7 8 9 9 9 9 9
3 2 1 1 1 0 0 1 1 1 2 2 2 2 2 2 2 2 2 2 2 2 3 3 3 2 2 1 2 2 2 3 2 2 3 6 7 8 9 9 9 9 9
4 3 2 2 1 0 0 1 1 1 1 1 1 1 1 1 1 1 1 2 2 1 1 1 1 1 1 1 1 1 2 2 2 2 3 7 8 9 10 10 10 10 10
3 4 3 3 2 1 1 0 0 0 0 0 0 0 1 1 1 1 0 1 0 0 0 0 0 0 0 1 1 2 2 2 2 2 3 7 8 9 10 10 10 10 10
4 4 4 3 3 2 1 1 0 0 0 0 0 0 1 1 1 0 1 1 1 0 0 0 0 1 1 1 1 2 3 3 3 3 2 7 8 9 10 11 11 11 11
6 5 4 4 4 3 2 1 1 0 1 0 1 1 1 1 1 1 1 1 1 1 1 1 1 1 1 1 1 2 2 3 3 3 3 4 7 8 9 10 11 11 12
6 5 5 5 4 3 3 2 1 1 1 1 1 1 1 2 1 1 1 1 1 1 1 1 1 0 1 1 1 1 2 2 3 3 3 2 3 6 8 9 10 11 12
6 5 5 5 4 3 3 2 1 1 1 0 0 0 1 1 1 1 1 1 1 1 1 1 1 0 1 1 1 1 1 1 2 3 2 3 2 3 4 7 8 8 10
7 6 5 4 4 3 2 1 1 1 0 0 0 0 0 1 1 1 1 1 1 1 1 1 1 1 1 1 1 1 1 1 2 2 2 3 2 2 2 3 5 5 8
5 5 5 4 4 3 2 1 1 1 1 1 1 0 0 0 0 1 0 1 1 1 1 1 1 1 1 1 0 1 0 1 1 1 2 1 1 2 2 2 2 3 6
5 5 5 5 4 3 2 1 1 0 0 1 1 1 1 1 1 1 0 1 0 0 1 1 1 1 1 1 1 1 1 1 0 1 1 1 1 2 1 2 2 2 2
6 6 5 5 4 4 2 2 1 1 0 0 1 2 2 1 1 0 1 0 0 0 0 1 1 1 1 1 2 1 1 2 1 1 0 1 1 1 1 1 1 1 2
7 7 6 5 5 4 3 2 2 2 2 2 2 1 2 1 1 0 0 0 1 1 1 1 2 2 2 1 1 2 2 1 1 2 2 1 1 0 0 0 0 1 1
8 6 6 5 4 4 4 3 3 2 1 1 0 1 2 2 2 1 1 0 0 0 1 1 1 2 2 1 1 1 2 2 2 0 1 2 2 1 1 1 1 1 1
8 6 6 5 4 4 4 5 4 3 2 1 0 1 1 2 2 2 1 1 1 1 1 1 1 1 1 2 2 1 1 1 2 2 1 1 2 2 2 2 1 2 1
6 6 6 6 5 4 5 5 5 4 3 2 1 0 1 1 2 2 2 1 1 1 1 1 1 0 1 1 1 1 2 2 2 2 2 1 1 1 3 3 2 2 2
Wind_Direction
354 20 86 85 83 82 79 81 85 88 88 90 94 95 96 98 102 104 104 104 104 103 103 102 103 104 104 104 104 104 106 105 107 108 108 108 110 114 117 117 115 115 117
139 96 101 94 89 85 82 80 85 88 90 91 93 95 96 97 99 102 101 104 104 104 102 102 103 104 104 104 105 106 106 106 107 108 108 109 110 113 116 117 117 119 120
107 89 103 100 95 89 85 84 82 86 89 90 91 94 96 96 97 101 100 102 105 104 103 104 105 105 105 105 105 106 107 106 105 105 103 102 110 115 117 119 121 120 121
111 94 106 105 99 93 89 88 86 87 88 89 90 93 96 95 96 99 100 100 102 103 105 106 107 106 107 107 106 107 107 106 104 102 92 101 111 118 120 122 124 124 125
98 91 114 110 105 99 94 92 91 89 90 92 92 94 97 96 96 99 101 102 104 105 106 106 106 107 107 107 108 110 110 108 104 97 91 91 101 122 124 126 127 127 126
95 89 118 117 112 105 100 97 96 94 93 94 93 93 96 95 96 101 101 101 104 105 106 106 107 107 107 108 108 111 111 111 104 97 97 100 107 127 129 129 129 130 129
106 91 113 119 116 112 108 105 103 101 98 97 96 94 94 94 94 99 102 101 102 104 106 107 107 109 112 113 113 114 113 114 106 108 112 114 122 133 135 134 134 135 135
110 92 96 121 117 115 113 110 107 106 103 101 100 98 96 95 97 99 102 105 105 106 109 111 112 112 112 115 117 116 117 116 116 120 123 129 139 141 139 139 139 140 138
91 84 57 68 101 116 116 114 109 104 100 99 99 99 99 99 99 100 102 106 108 110 112 113 113 114 112 115 121 122 122 115 115 128 135 136 149 152 149 148 149 147 145
81 75 64 52 50 56 78 112 112 107 100 96 99 102 98 95 93 96 96 104 111 116 118 117 115 114 112 115 125 129 126 117 121 133 131 150 161 162 160 159 159 159 157
143 76 79 80 66 58 54 125 109 109 97 87 82 93 83 59 55 66 89 105 114 124 130 127 125 121 108 103 117 122 117 118 130 136 146 165 172 173 173 172 170 169 168
195 211 216 191 163 81 119 66 47 50 48 47 42 48 57 55 44 54 42 76 114 130 143 141 143 127 98 81 90 106 113 138 148 160 180 187 186 185 185 184 182 181 180
193 197 201 215 213 201 346 38 33 40 49 43 40 51 51 42 25 24 16 358 0 15 56 66 62 79 114 139 138 147 166 171 182 190 196 200 201 199 196 194 193 193 192
182 203 204 201 201 214 211 308 335 26 57 39 352 108 93 41 3 354 347 318 332 2 71 90 87 39 228 218 200 191 192 197 202 203 210 213 213 211 206 204 202 200 199
190 209 210 199 197 199 194 242 201 203 203 219 237 214 178 189 247 273 271 266 264 252 218 194 213 251 255 262 234 207 210 212 210 210 219 223 221 216 213 212 210 209 209
193 201 198 197 196 186 188 199 219 213 234 242 235 237 204 191 203 223 255 258 260 240 228 218 224 242 262 255 263 239 226 218 213 211 218 227 226 222 220 218 216 214 216
189 190 191 195 186 183 186 189 183 199 192 248 263 240 211 198 197 190 229 264 261 230 208 200 232 245 251 240 253 242 227 220 217 217 219 225 232 229 228 226 226 223 222
180 185 194 190 176 183 180 169 165 157 161 254 284 291 248 212 187 169 207 263 263 207 180 185 196 229 256 247 264 271 249 229 223 219 217 221 225 231 234 231 229 229 229
182 180 182 183 172 175 167 154 133 98 70 315 298 180 76 77 154 166 208 255 244 200 198 216 186 186 215 236 251 257 249 238 235 226 217 216 216 222 230 243 237 236 234
176 175 177 177 170 150 129 105 67 55 32 16 7 335 42 62 104 153 209 264 217 181 212 205 198 191 208 224 300 344 330 259 234 226 222 208 203 209 219 235 246 253 247
171 176 180 174 170 146 135 138 138 125 22 8 344 2 29 42 56 91 19 317 249 204 220 199 172 174 196 152 107 10 2 24 154 236 221 196 210 213 208 224 243 255 263
183 187 186 180 174 172 162 154 150 132 130 328 349 13 17 17 357 124 155 301 261 246 261 205 176 174 205 171 156 142 344 358 9 350 190 185 216 212 211 229 240 250 262
191 194 192 187 182 179 162 121 95 74 48 29 7 358 348 350 350 360 105 231 253 221 249 245 202 195 215 218 186 167 169 222 325 11 29 62 81 123 208 286 338 272 263
201 193 186 182 180 174 162 154 156 153 167 202 210 314 344 4 359 359 20 137 243 242 266 268 218 213 196 210 217 216 199 170 175 336 20 39 52 48 23 19 2 357 356
190 182 179 172 175 173 167 163 157 157 163 141 102 7 354 356 357 356 11 22 352 313 298 297 281 220 203 197 198 195 183 174 182 184 213 34 44 38 38 29 25 29 33
178 172 168 166 175 171 165 161 163 165 159 141 123 36 354 352 355 359 4 357 337 328 319 304 297 265 222 208 205 200 186 180 184 178 187 175 82 37 41 38 36 37 40